Regional Weather Roundup
Issued by NWS Sterling, VA

Home | Current Version | Previous Version | Text Only | Print | Product List | Glossary On
Versions: 1 2 3 4 5 6 7 8 9 10 11 12 13 14 15 16 17 18 19 20 21 22 23 24 25 26 27
000
ASUS41 KLWX 102310
RWRLWX

REGIONAL WEATHER ROUNDUP
NATIONAL WEATHER SERVICE BALTIMORE MD/WASHINGTON DC
600 PM EST SAT DEC 10 2016

Note: "FAIR" indicates few or no clouds below 12,000 feet
with no significant weather and/or obstructions to visibility.
 TC=TEMPERATURE CELSIUS

 * =Non NWS site. Station does not report precipitation (e.g. rain,
    snow, etc.), thunder, or fog.

DCZ001-MDZ009-015-VAZ040>042-051-053>054-110000-
WASHINGTON METRO

CITY           SKY/WX    TMP DP  RH WIND       PRES   REMARKS
WASHINGTON NAT CLEAR     33  12  41 NW9       30.52R WCI  25
DULLES         CLEAR     30  11  45 NW12      30.50R WCI  20
ANDREWS AFB    CLEAR     31  11  43 NW8       30.48R WCI  23
QUANTICO       CLEAR     33  14  45 N8        30.52R WCI  26
COLLEGE PARK*  CLEAR     32  12  43 NW3       30.50R
LEESBURG*      CLEAR     32  18  55 N6        30.51R
MANASSAS*      CLEAR    N/A N/A N/A N10       30.52R
GAITHERSBURG*  CLEAR     27   9  46 NW8       30.52R WCI  18

$$

MDZ006>007-011-014-110000-
BALTIMORE METRO

CITY           SKY/WX    TMP DP  RH WIND       PRES   REMARKS
BWI AIRPORT    CLEAR     29  13  51 W8        30.49R WCI  21
MD SCIENCE CTR   N/A     34  11  38 MISG      30.49R
MARTIN STATE   MOCLDY    34  16  47 W14       30.50R WCI  24
ANNAPOLIS      CLEAR     34  12  40 W6        30.50R
FORT MEADE*    CLEAR     30  14  51 W7        30.52R

$$

MDZ012-015-019>023-110000-
MARYLAND EASTERN SHORE

CITY           SKY/WX    TMP DP  RH WIND       PRES   REMARKS
OCEAN CITY     CLEAR     31  16  54 NW5       30.48R
SALISBURY      CLEAR     32  16  51 NW6       30.48R
BAY BRIDGE AP* CLEAR     34  14  44 MISG      30.50R
CAMBRIDGE*     CLEAR     32  14  47 W6        30.49R
EASTON*        CLEAR     34  12  40 NW8       30.53R WCI  27

$$

MDZ017>025-110000-
SOUTHERN MARYLAND

CITY           SKY/WX    TMP DP  RH WIND       PRES   REMARKS
PATUXENT RIVER PTCLDY    34  15  46 NW14      30.50R WCI  25
ST INIGOES     CLEAR     35  15  44 VRB3      30.50R
LEONARDTOWN*   CLEAR     32  14  47 NW3       30.52R

$$

MDZ003>005-110000-
NORTH CENTRAL MARYLAND

CITY           SKY/WX    TMP DP  RH WIND       PRES   REMARKS
FREDERICK*     CLEAR     30  12  47 NW5       30.53R
HAGERSTOWN APT CLEAR     28  10  46 W7        30.47R
WESTMINSTER*     N/A     27  10  50 W8        30.45R WCI  18

$$

MDZ501>502-110000-
WESTERN MARYLAND

CITY           SKY/WX    TMP DP  RH WIND       PRES   REMARKS
OAKLAND*       CLOUDY    14  12  92 W5        30.33R
CUMBERLAND*    NOT AVBL

$$

VAZ025>031-110000-
SHENANDOAH VALLEY

CITY           SKY/WX    TMP DP  RH WIND       PRES   REMARKS
WINCHESTER*    CLEAR     27  10  50 NW5       30.49R
FRONT ROYAL*   FAIR      28  12  50 NW5       30.47S
LURAY*         FAIR      30  16  55 N7        30.46S
NEW MARKET*    FAIR      27  10  49 CALM      30.45S
STAUNTON*      CLEAR     28  11  49 N5        30.45R
WAYNESBORO*    FAIR      28   8  43 CALM      30.41S

$$

WVZ021-048>050-054>055-110000-
EASTERN WEST VIRGINIA PANHANDLE

CITY           SKY/WX    TMP DP  RH WIND       PRES   REMARKS
MARTINSBURG    CLEAR     27  11  51 NW6       30.49R
PETERSBURG*    CLEAR     25  15  66 W8        30.49R WCI  16

$$

VAZ036>039-050-110000-
CENTRAL FOOTHILLS

CITY           SKY/WX    TMP DP  RH WIND       PRES   REMARKS
CHARLOTTESVILL CLEAR     34  11  38 CALM      30.45S
CULPEPER*      CLEAR     30  14  50 CALM      30.50S
ORANGE*          N/A     28  19  69 CALM      30.49S
GORDONSVILLE*  FAIR      28  16  58 CALM      30.47R
WARRENTON*     FAIR      31   8  38 N5        30.49R

$$

VAZ055>057-110000-
NORTH AND CENTRAL PIEDMONT

CITY           SKY/WX    TMP DP  RH WIND       PRES   REMARKS
FREDERICKSBRG* CLEAR     32  19  58 NW3       30.50R
STAFFORD*      CLEAR     31  13  48 N7        30.54R

$$

NCZ024-NYZ072-PAZ021-071-VAZ022-071-110000-
OTHER REGIONAL OBSERVATIONS

CITY           SKY/WX    TMP DP  RH WIND       PRES   REMARKS
NEW YORK CITY  CLOUDY    33  18  53 NW6       30.42R
PHILADELPHIA   PTCLDY    35  12  38 NW10      30.46R WCI  27
PITTSBURGH     FLURRIES  26  17  68 W5        30.45R
ROANOKE        PTCLDY    34  10  37 CALM      30.46R
RICHMOND       PTCLDY    34  12  40 NW3       30.50R
RALEIGH        PTCLDY    35  13  40 CALM      30.47S

$$

ANZ530>537-110000-
MARINE OBSERVATIONS

STATION/POSITION TIME  TEMP    WIND        PRES
                       AIR SEA DIR/SP/G
                 (UTC) (F)     (DEG/KT/KT) (MB)
THOMAS PT LIGHT  2300   34 45  290/ 14/ 16   N/A
BALT KEY BRIDGE  2248   34     280/ 15/ 18 1032.4R
COVE POINT       2248   35     350/ 13/ 18 1033.3R
LEWISETTA        2248   36 43  310/  4/  5 1032.5R
SOLOMONS ISLAND  2248          350/  8/ 10   N/A
PINEY POINT      2236          340/ 13/ 16   N/A

$$





USA.gov is the U.S. government's official web portal to all federal, state and local government web resources and services.